Gainesville, GA

6:18 PM EDT on August 29, 2016 (GMT -0400)
Gilmer Memorial

Weather History for KGVL - October, 2011

Change the Weather History Date:

Saturday, October 8, 2011

  Actual Average Record
Temperature  
Mean Temperature 64 °F 64 °F  
Max Temperature 75 °F 74 °F 90 °F (1939)
Min Temperature 54 °F 54 °F 30 °F (1935)
Degree Days  
Heating Degree Days 0 3  
Month to date heating degree days 19  
Since 1 July heating degree days 32  
Cooling Degree Days 0 2  
Month to date cooling degree days 19  
Year to date cooling degree days 1560  
Growing Degree Days 14 (Base 50)    
Moisture  
Dew Point 49 °F    
Average Humidity 59    
Maximum Humidity 75    
Minimum Humidity 43    
Precipitation  
Precipitation 0.00 in 0.14 in 1.64 in (2008)
Month to date precipitation 1.33  
Year to date precipitation 42.26  
Sea Level Pressure  
Sea Level Pressure 30.38 in    
Wind  
Wind Speed 9 mph (ENE)    
Max Wind Speed 15 mph    
Max Gust Speed 22 mph    
Visibility 10 miles    
Events      
T = Trace of Precipitation, MM = Missing Value Source: NWS Daily Summary

Daily Weather History Graph

Daily Weather History Graph

Search for Another Location

Airport or City:

Trip Planner

Search our weather history database for the weather conditions in past years. The results will help you decide how hot, cold, wet, or windy it might be!

Date:

Astronomy

Oct. 08, 2011 Rise Set
Actual Time 7:34 AM EDT 7:10 PM EDT
Civil Twilight 7:09 AM EDT 7:35 PM EDT
Nautical Twilight 6:40 AM EDT 8:04 PM EDT
Astronomical Twilight 6:11 AM EDT 8:33 PM EDT
Moon 5:14 PM EDT (10/8) 4:28 AM EDT (10/8)
Length of Visible Light 12h 25m
Length of Day
11h 35m
Waxing Gibbous, 90% of the Moon is Illuminated
Oct 8
Waxing Gibbous
Oct 11
Full
Oct 19
Last Quarter
Oct 26
New
Nov 2
First Quarter

Hourly Weather History & Observations

Time (EDT) Temp. Dew Point Humidity Pressure Visibility Wind Dir Wind Speed Gust Speed Precip Events Conditions
12:53 AM 59.0 °F 48.0 °F 67% 30.38 in 10.0 mi ENE 9.2 mph - N/A   Clear
2:53 AM 57.0 °F 48.0 °F 72% 30.38 in 10.0 mi ENE 8.1 mph - N/A   Clear
3:53 AM 57.0 °F 46.9 °F 69% 30.38 in 10.0 mi ENE 9.2 mph - N/A   Clear
4:53 AM 55.9 °F 46.9 °F 72% 30.38 in 10.0 mi ENE 8.1 mph - N/A   Partly Cloudy
5:53 AM 54.0 °F 46.0 °F 75% 30.39 in 10.0 mi NE 5.8 mph - N/A   Clear
6:53 AM 54.0 °F 46.0 °F 75% 30.40 in 10.0 mi NE 5.8 mph - N/A   Clear
7:53 AM 54.0 °F 46.0 °F 75% 30.42 in 10.0 mi NE 5.8 mph - N/A   Partly Cloudy
9:53 AM 62.1 °F 48.0 °F 60% 30.43 in 10.0 mi ENE 13.8 mph 19.6 mph N/A   Clear
10:53 AM 66.0 °F 50.0 °F 56% 30.44 in 10.0 mi East 15.0 mph 21.9 mph N/A   Clear
11:53 AM 69.1 °F 51.1 °F 53% 30.43 in 10.0 mi ENE 11.5 mph 21.9 mph N/A   Partly Cloudy
2:53 PM 73.9 °F 53.1 °F 48% 30.37 in 10.0 mi East 11.5 mph 20.7 mph N/A   Partly Cloudy
3:53 PM 75.0 °F 52.0 °F 44% 30.35 in 10.0 mi Variable 5.8 mph - N/A   Partly Cloudy
4:53 PM 73.9 °F 50.0 °F 43% 30.33 in 10.0 mi ENE 11.5 mph - N/A   Clear
5:51 PM 71.6 °F 50.0 °F 46% 30.35 in 10.0 mi ENE 10.4 mph - N/A   Partly Cloudy
5:53 PM 71.1 °F 50.0 °F 47% 30.32 in 10.0 mi ENE 10.4 mph - N/A   Partly Cloudy
7:53 PM 66.9 °F 48.9 °F 52% 30.35 in 10.0 mi East 9.2 mph - N/A   Clear
8:53 PM 66.0 °F 48.0 °F 52% 30.35 in 10.0 mi ENE 6.9 mph - N/A   Clear
10:53 PM 63.0 °F 48.0 °F 58% 30.36 in 10.0 mi ENE 9.2 mph - N/A   Clear
11:53 PM 63.0 °F 46.9 °F 56% 30.35 in 10.0 mi ENE 8.1 mph - N/A   Clear